Find Aerocube 4.5A

NORAD ID: 38767 Int'l Des: 2012-048 Owner: AERO Country: US operational
LEOCIRCULAR

リアルタイム位置

3D地球を読み込み中...

Aerocube 4.5Aについて

説明を読み込み中...

次回通過

Passes for default location (London). Set your location on the main map for personalized predictions.

高度履歴

Loading altitude history...

軌道要素

1 38767U 12048K 26105.76284804 .00093514 00000-0 73740-3 0 9995
2 38767 64.6326 250.2241 0030075 211.4658 148.4694 15.70306258362798
Epoch: Apr 15, 2026 • Age: 11 hours

現在のステータス

高度 368.1 km
速度 7.69 km/s
衛星直下点 55.23°N, 98.97°E
打ち上げ日 Sep 13, 2012
運用期間 13.5 years
タイプ other

技術仕様

分類 Payload
質量 1.30 kg
乾燥質量 1.30 kg
総質量 1.30 kg
長さ 0.10 m
直径 0.10 m
スパン 0.30 m
形状 Box + pan
製造者 AERO
バスタイプ Cubesat 1U
フェーズステータス In Orbit
所有者/国 AERO/US

Most Searched